When you browse on this site, cookies collect data to enhance your experience and personalize the content and advertising you see.
Visit our Privacy Policy to learn more. By continuing to use the site, you agree to this use of cookies and data.
  • En España
  • Lista de países
  • Para 7 días
  • Temperatura del agua
  • El tiempo en el mapa
  • Informadores
  • user-avatar
    Iniciar sesión

    Tiempo cada hora Spasskoe-Shlykovo

    Hoy, 20 Agosto, Martes

    Tiempo Temperatura Precipitaciones Viento Presión Humedad
    00:00 +15°C° 0 mm 0 mps 746 mmHg 87%
    01:00 +15°C° 0 mm 0 mps 746 mmHg 87%
    02:00 +14°C° 0 mm 0 mps 746 mmHg 87%
    03:00 +14°C° 0 mm 0 mps 747 mmHg 88%
    04:00 +14°C° 0 mm 0 mps 747 mmHg 88%
    05:00 +15°C° 0 mm 0 mps 747 mmHg 88%
    06:00 +18°C° 0 mm 1 mps 747 mmHg 82%
    07:00 +20°C° 0 mm 1 mps 747 mmHg 77%
    08:00 +22°C° 0 mm 1 mps 748 mmHg 71%
    09:00 +23°C° 0 mm 1 mps 748 mmHg 67%
    10:00 +24°C° 0 mm 1 mps 748 mmHg 63%
    11:00 +26°C° 0 mm 1 mps 748 mmHg 59%
    12:00 +26°C° 0 mm 1 mps 748 mmHg 57%
    13:00 +27°C° 0 mm 1 mps 747 mmHg 55%
    14:00 +27°C° 0 mm 1 mps 747 mmHg 54%
    15:00 +27°C° 0 mm 1 mps 747 mmHg 58%
    16:00 +27°C° 0 mm 1 mps 747 mmHg 62%
    17:00 +26°C° 0 mm 1 mps 747 mmHg 65%
    18:00 +25°C° 0 mm 1 mps 747 mmHg 70%
    19:00 +23°C° 0 mm 1 mps 748 mmHg 74%
    20:00 +21°C° 0 mm 1 mps 748 mmHg 78%
    21:00 +21°C° 0 mm 1 mps 748 mmHg 79%
    22:00 +20°C° 0 mm 1 mps 748 mmHg 81%
    23:00 +20°C° 0 mm 1 mps 748 mmHg 82%

    Mañana, 21 Agosto, Miércoles

    Tiempo Temperatura Precipitaciones Viento Presión Humedad
    00:00 +19°C° 0 mm 1 mps 748 mmHg 83%
    01:00 +19°C° 0 mm 1 mps 748 mmHg 84%
    02:00 +19°C° 0 mm 1 mps 748 mmHg 85%
    03:00 +19°C° 0 mm 1 mps 748 mmHg 85%
    04:00 +19°C° 0 mm 1 mps 748 mmHg 86%
    05:00 +19°C° 0 mm 1 mps 748 mmHg 86%
    06:00 +20°C° 0 mm 1 mps 748 mmHg 82%
    07:00 +22°C° 0 mm 1 mps 749 mmHg 78%
    08:00 +24°C° 0 mm 1 mps 749 mmHg 74%
    09:00 +23°C° 0 mm 0 mps 749 mmHg 70%
    10:00 +25°C° 0 mm 0 mps 749 mmHg 66%
    11:00 +26°C° 0 mm 0 mps 749 mmHg 63%
    12:00 +26°C° 0 mm 0 mps 748 mmHg 61%
    13:00 +27°C° 0 mm 0 mps 748 mmHg 59%
    14:00 +27°C° 0 mm 0 mps 748 mmHg 57%
    15:00 +29°C° 0 mm 1 mps 748 mmHg 60%
    16:00 +28°C° 0 mm 1 mps 747 mmHg 64%
    17:00 +28°C° 0 mm 1 mps 747 mmHg 67%
    18:00 +26°C° 0 mm 1 mps 747 mmHg 71%
    19:00 +25°C° 0 mm 1 mps 747 mmHg 74%
    20:00 +23°C° 0 mm 1 mps 747 mmHg 78%
    21:00 +23°C° 0 mm 2 mps 747 mmHg 79%
    22:00 +21°C° 0 mm 2 mps 747 mmHg 80%
    23:00 +21°C° 0 mm 2 mps 747 mmHg 82%

    Pasado mañana, 22 Agosto, Jueves

    Tiempo Temperatura Precipitaciones Viento Presión Humedad
    00:00 +20°C° 0 mm 2 mps 747 mmHg 83%
    01:00 +20°C° 0 mm 2 mps 747 mmHg 84%
    02:00 +19°C° 0 mm 2 mps 747 mmHg 85%
    03:00 +20°C° 0 mm 1 mps 746 mmHg 86%
    04:00 +20°C° 0 mm 1 mps 746 mmHg 87%
    05:00 +20°C° 0 mm 1 mps 746 mmHg 88%
    06:00 +21°C° 0 mm 1 mps 746 mmHg 83%
    07:00 +23°C° 0 mm 1 mps 746 mmHg 78%
    08:00 +24°C° 0 mm 2 mps 746 mmHg 74%
    09:00 +25°C° 0 mm 2 mps 746 mmHg 70%
    10:00 +27°C° 0 mm 2 mps 746 mmHg 66%
    11:00 +28°C° 0 mm 2 mps 746 mmHg 62%
    12:00 +28°C° 0.1 mm 2 mps 746 mmHg 62%
    13:00 +28°C° 0.1 mm 2 mps 746 mmHg 61%
    14:00 +28°C° 0.1 mm 2 mps 746 mmHg 60%
    15:00 +27°C° 0.8 mm 3 mps 746 mmHg 68%
    16:00 +25°C° 0.8 mm 4 mps 746 mmHg 76%
    17:00 +23°C° 0.8 mm 5 mps 746 mmHg 83%
    18:00 +21°C° 0.4 mm 5 mps 746 mmHg 86%
    19:00 +20°C° 0.4 mm 4 mps 746 mmHg 89%
    20:00 +18°C° 0.4 mm 4 mps 747 mmHg 92%
    21:00 +18°C° 0.1 mm 4 mps 747 mmHg 93%
    22:00 +17°C° 0.1 mm 3 mps 747 mmHg 93%
    23:00 +16°C° 0.1 mm 3 mps 747 mmHg 93%

    23 Agosto, Viernes

    Tiempo Temperatura Precipitaciones Viento Presión Humedad
    00:00 +16°C° 0 mm 3 mps 748 mmHg 93%
    01:00 +16°C° 0 mm 3 mps 748 mmHg 93%
    02:00 +14°C° 0 mm 3 mps 748 mmHg 93%
    03:00 +14°C° 0 mm 3 mps 748 mmHg 93%
    04:00 +14°C° 0 mm 3 mps 748 mmHg 93%
    05:00 +13°C° 0 mm 3 mps 748 mmHg 93%
    06:00 +14°C° 0 mm 3 mps 748 mmHg 89%
    07:00 +17°C° 0 mm 4 mps 749 mmHg 85%
    08:00 +18°C° 0 mm 4 mps 749 mmHg 81%
    09:00 +19°C° 0 mm 4 mps 749 mmHg 75%
    10:00 +20°C° 0 mm 4 mps 749 mmHg 70%
    11:00 +21°C° 0 mm 4 mps 749 mmHg 65%
    12:00 +22°C° 0 mm 4 mps 749 mmHg 63%
    13:00 +22°C° 0 mm 4 mps 749 mmHg 61%
    14:00 +22°C° 0 mm 4 mps 749 mmHg 59%
    15:00 +22°C° 0 mm 3 mps 749 mmHg 62%
    16:00 +23°C° 0 mm 2 mps 748 mmHg 65%
    17:00 +21°C° 0 mm 2 mps 748 mmHg 68%
    18:00 +20°C° 0 mm 2 mps 749 mmHg 71%
    19:00 +18°C° 0 mm 2 mps 749 mmHg 74%
    20:00 +16°C° 0 mm 1 mps 749 mmHg 77%
    21:00 +16°C° 0 mm 2 mps 749 mmHg 79%
    22:00 +15°C° 0 mm 2 mps 749 mmHg 80%
    23:00 +15°C° 0 mm 2 mps 749 mmHg 81%

    24 Agosto, Sábado

    Tiempo Temperatura Precipitaciones Viento Presión Humedad
    00:00 +14°C° 0 mm 2 mps 749 mmHg 82%
    01:00 +14°C° 0 mm 2 mps 749 mmHg 83%
    02:00 +13°C° 0 mm 2 mps 749 mmHg 83%
    03:00 +13°C° 0 mm 2 mps 750 mmHg 85%
    04:00 +12°C° 0 mm 2 mps 750 mmHg 87%
    05:00 +12°C° 0 mm 2 mps 750 mmHg 89%
    06:00 +14°C° 0 mm 2 mps 750 mmHg 84%
    07:00 +16°C° 0 mm 2 mps 750 mmHg 78%
    08:00 +17°C° 0 mm 2 mps 750 mmHg 72%
    09:00 +19°C° 0 mm 2 mps 750 mmHg 66%
    10:00 +20°C° 0 mm 2 mps 750 mmHg 60%
    11:00 +21°C° 0 mm 2 mps 750 mmHg 54%
    12:00 +21°C° 0 mm 2 mps 750 mmHg 52%
    13:00 +23°C° 0 mm 2 mps 750 mmHg 51%
    14:00 +23°C° 0 mm 2 mps 750 mmHg 49%
    15:00 +23°C° 0 mm 2 mps 750 mmHg 54%
    16:00 +21°C° 0 mm 2 mps 749 mmHg 59%
    17:00 +21°C° 0 mm 2 mps 749 mmHg 64%
    18:00 +20°C° 0 mm 1 mps 749 mmHg 68%
    19:00 +19°C° 0 mm 1 mps 749 mmHg 72%
    20:00 +16°C° 0 mm 1 mps 749 mmHg 76%
    21:00 +16°C° 0 mm 1 mps 749 mmHg 78%
    22:00 +15°C° 0 mm 2 mps 750 mmHg 80%
    23:00 +15°C° 0 mm 2 mps 750 mmHg 82%

    25 Agosto, Domingo

    Tiempo Temperatura Precipitaciones Viento Presión Humedad
    00:00 +14°C° 0 mm 2 mps 749 mmHg 84%
    01:00 +14°C° 0 mm 2 mps 749 mmHg 85%
    02:00 +14°C° 0 mm 2 mps 749 mmHg 86%
    03:00 +13°C° 0 mm 2 mps 749 mmHg 87%
    04:00 +13°C° 0 mm 2 mps 749 mmHg 87%
    05:00 +13°C° 0 mm 2 mps 749 mmHg 88%
    06:00 +15°C° 0 mm 2 mps 749 mmHg 84%
    07:00 +16°C° 0 mm 3 mps 749 mmHg 80%
    08:00 +18°C° 0 mm 3 mps 749 mmHg 76%
    09:00 +19°C° 0 mm 3 mps 749 mmHg 71%
    10:00 +21°C° 0 mm 3 mps 748 mmHg 67%
    11:00 +22°C° 0 mm 4 mps 748 mmHg 63%
    12:00 +22°C° 0 mm 4 mps 748 mmHg 62%
    13:00 +23°C° 0 mm 4 mps 748 mmHg 60%
    14:00 +23°C° 0 mm 4 mps 747 mmHg 59%
    15:00 +23°C° 0 mm 4 mps 747 mmHg 63%
    16:00 +22°C° 0 mm 3 mps 747 mmHg 67%
    17:00 +22°C° 0 mm 3 mps 747 mmHg 70%
    18:00 +20°C° 0 mm 3 mps 747 mmHg 75%
    19:00 +19°C° 0 mm 3 mps 747 mmHg 80%
    20:00 +17°C° 0 mm 2 mps 747 mmHg 84%
    21:00 +17°C° 0 mm 2 mps 747 mmHg 87%
    22:00 +16°C° 0 mm 2 mps 747 mmHg 89%
    23:00 +16°C° 0 mm 2 mps 747 mmHg 91%
    Mostrar más